Flag for Canada Weather past 2 weeks in Creston, British Columbia, Canada

Now
58 °F

Cool.


Feels Like: 57 °F
Forecast: 48 / 72 °F
Wind: 6 mph from North

Location: Creston

Current Time: Aug 30, 2014 at 5:52:17 AM

Latest Report: Aug 30, 2014 at 5:00 AM


Visibility: N/A

Pressure: 29.81 "Hg

Humidity: 85%

Dew point: 53 °F

Location of CrestonLocation

Historic Weather in Creston — Graph

°F

Creston temperature yesterday

Maximum temperature yesterday: 82 °F (at 4:00 PM)
Minimum temperature yesterday: 54 °F (at 7:00 AM)
Average temperature yesterday: 66 °F

Past Weeks' High & Low Weather Summary

 TemperatureHumidityPressure
High87 °F (Aug 27, 6:00 PM)100% (Aug 16, 3:00 AM)30.22 "Hg (Aug 16, 3:00 AM)
Low51 °F (Aug 25, 6:00 AM)27% (Aug 29, 4:00 PM)29.67 "Hg (Aug 19, 5:00 PM)
Average65 °F69%29.99 "Hg
* Reported Aug 15 4:00 AM — Aug 30 4:00 AM, Creston, Weather by CustomWeather, © 2014

Note: Actual official high and low records may vary slightly from our data, if they occured in-between our weather recording intervals... More about our weather records

Advertising

Creston weather history for previous 24 hours

 ConditionsComfort  
Time TempWeatherWind HumidityBarometerVisibility
4:00 AM
Aug 30
57 °FCool.6 mph78%29.80 "HgN/A
3:00 AM60 °FCool.10 mph78%29.80 "HgN/A
2:00 AM60 °FCool.14 mph75%29.79 "HgN/A
1:00 AM61 °FCool.12 mph80%29.79 "HgN/A
12:00 AM63 °FMild.8 mph76%29.79 "HgN/A
11:00 PM
Aug 29
64 °FMild.14 mph66%29.79 "HgN/A
10:00 PM64 °FMild.12 mph68%29.80 "HgN/A
9:00 PM68 °FMild.12 mph51%29.80 "HgN/A
8:00 PM72 °FMild.9 mph34%29.79 "HgN/A
7:00 PM73 °FMild.13 mph40%29.75 "HgN/A
6:00 PM77 °FPleasantly warm.6 mph32%29.75 "HgN/A
5:00 PM81 °FPleasantly warm.8 mph27%29.75 "HgN/A
4:00 PM82 °FPleasantly warm.9 mph27%29.77 "HgN/A
3:00 PM80 °FPleasantly warm.8 mph28%29.78 "HgN/A
2:00 PM80 °FPleasantly warm.8 mph32%29.80 "HgN/A
12:00 PM73 °FMild.7 mph47%29.87 "HgN/A
11:00 AM69 °FMild.3 mph58%29.91 "HgN/A
10:00 AM65 °FMild.2 mph61%29.94 "HgN/A
9:00 AM62 °FCool.5 mph66%29.97 "HgN/A
8:00 AM60 °FCool.5 mph72%29.98 "HgN/A
7:00 AM54 °FCool.2 mph82%29.98 "HgN/A
6:00 AM55 °FCool.6 mph71%29.98 "HgN/A
5:00 AM54 °FCool.5 mph78%29.98 "HgN/A
Weather by CustomWeather, © 2014

See weather overviewHow to use our weather pages